• In Hungary
  • List of Countries
  • For 7 days
  • Water Temperature
  • Satellite Maps
  • Weather Map
  • News
  • Weather Widgets
  • user-avatar
    Login

    Hourly Weather Chulovychi

    Today, 13 December, Wednesday

    Time Temperature Precipitation Wind Pressure Humidity
    00:00 +7°C° 0.7 mm 3 mps 735 mmHg 87%
    01:00 +5°C° 0.7 mm 3 mps 736 mmHg 85%
    02:00 +5°C° 0 mm 3 mps 736 mmHg 86%
    03:00 +4°C° 0.9 mm 3 mps 736 mmHg 84%
    04:00 +4°C° 0.9 mm 3 mps 736 mmHg 83%
    05:00 +3°C° 0.9 mm 3 mps 737 mmHg 81%
    06:00 +3°C° 0.8 mm 3 mps 737 mmHg 83%
    07:00 +2°C° 0.8 mm 3 mps 737 mmHg 85%
    08:00 +3°C° 0.8 mm 2 mps 738 mmHg 87%
    09:00 +3°C° 0.5 mm 2 mps 738 mmHg 87%
    10:00 +3°C° 0.5 mm 2 mps 738 mmHg 88%
    11:00 +3°C° 0.5 mm 1 mps 739 mmHg 89%
    12:00 +4°C° 0.1 mm 1 mps 738 mmHg 87%
    13:00 +4°C° 0.1 mm 1 mps 738 mmHg 86%
    14:00 +4°C° 0.1 mm 1 mps 738 mmHg 84%
    15:00 +3°C° 0 mm 1 mps 738 mmHg 86%
    16:00 +3°C° 0 mm 1 mps 737 mmHg 88%
    17:00 +2°C° 0 mm 1 mps 737 mmHg 90%
    18:00 +2°C° 0 mm 1 mps 737 mmHg 91%
    19:00 +2°C° 0 mm 1 mps 736 mmHg 91%
    20:00 +1°C° 0 mm 1 mps 736 mmHg 92%
    21:00 +1°C° 0 mm 1 mps 736 mmHg 93%
    22:00 -1°C° 0 mm 2 mps 735 mmHg 93%
    23:00 -1°C° 0 mm 2 mps 735 mmHg 94%

    Tomorrow, 14 December, Thursday

    Time Temperature Precipitation Wind Pressure Humidity
    00:00 -1°C° 0 mm 2 mps 734 mmHg 93%
    01:00 -1°C° 0 mm 2 mps 734 mmHg 93%
    02:00 -2°C° 0 mm 3 mps 733 mmHg 92%
    03:00 -1°C° 0 mm 3 mps 733 mmHg 90%
    04:00 -1°C° 0 mm 3 mps 732 mmHg 88%
    05:00 -2°C° 0 mm 4 mps 731 mmHg 87%
    06:00 -2°C° 0 mm 4 mps 731 mmHg 85%
    07:00 -1°C° 0 mm 4 mps 730 mmHg 83%
    08:00 -1°C° 0 mm 5 mps 730 mmHg 82%
    09:00 0°C° 0 mm 5 mps 730 mmHg 79%
    10:00 +1°C° 0 mm 6 mps 729 mmHg 77%
    11:00 +2°C° 0 mm 6 mps 729 mmHg 74%
    12:00 +2°C° 0.1 mm 7 mps 728 mmHg 74%
    13:00 +3°C° 0.1 mm 7 mps 728 mmHg 74%
    14:00 +3°C° 0.1 mm 7 mps 728 mmHg 74%
    15:00 +3°C° 0 mm 7 mps 728 mmHg 75%
    16:00 +2°C° 0 mm 7 mps 728 mmHg 76%
    17:00 +2°C° 0 mm 7 mps 729 mmHg 77%
    18:00 +2°C° 0 mm 6 mps 729 mmHg 77%
    19:00 +2°C° 0 mm 6 mps 729 mmHg 77%
    20:00 +2°C° 0 mm 6 mps 730 mmHg 77%
    21:00 +1°C° 0 mm 5 mps 730 mmHg 77%
    22:00 +1°C° 0 mm 5 mps 730 mmHg 78%
    23:00 0°C° 0 mm 4 mps 730 mmHg 79%

    Day after tomorrow, 15 December, Friday

    Time Temperature Precipitation Wind Pressure Humidity
    00:00 0°C° 0 mm 4 mps 730 mmHg 79%
    01:00 +1°C° 0 mm 3 mps 730 mmHg 79%
    02:00 +1°C° 0 mm 3 mps 730 mmHg 79%
    03:00 0°C° 0 mm 3 mps 729 mmHg 80%
    04:00 0°C° 0 mm 3 mps 729 mmHg 81%
    05:00 0°C° 0 mm 3 mps 728 mmHg 81%
    06:00 +1°C° 0 mm 3 mps 728 mmHg 82%
    07:00 +1°C° 0 mm 3 mps 728 mmHg 83%
    08:00 +1°C° 0 mm 3 mps 727 mmHg 84%
    09:00 +1°C° 0 mm 4 mps 727 mmHg 82%
    10:00 +3°C° 0 mm 4 mps 727 mmHg 80%
    11:00 +5°C° 0 mm 5 mps 726 mmHg 78%
    12:00 +5°C° 0 mm 4 mps 726 mmHg 79%
    13:00 +5°C° 0 mm 3 mps 726 mmHg 81%
    14:00 +7°C° 0 mm 2 mps 726 mmHg 82%
    15:00 +6°C° 0.5 mm 2 mps 726 mmHg 85%
    16:00 +5°C° 0.5 mm 2 mps 727 mmHg 88%
    17:00 +5°C° 0.5 mm 2 mps 727 mmHg 92%
    18:00 +5°C° 0.4 mm 1 mps 727 mmHg 91%
    19:00 +5°C° 0.4 mm 1 mps 728 mmHg 91%
    20:00 +5°C° 0.4 mm 1 mps 728 mmHg 91%
    21:00 +4°C° 0.1 mm 1 mps 728 mmHg 90%
    22:00 +4°C° 0.1 mm 1 mps 728 mmHg 89%
    23:00 +4°C° 0.1 mm 1 mps 728 mmHg 88%

    16 December, Saturday

    Time Temperature Precipitation Wind Pressure Humidity
    00:00 +3°C° 0.7 mm 1 mps 727 mmHg 88%
    01:00 +2°C° 0.7 mm 2 mps 727 mmHg 88%
    02:00 +2°C° 0.7 mm 2 mps 727 mmHg 88%
    03:00 +2°C° 1.7 mm 2 mps 726 mmHg 89%
    04:00 +1°C° 1.7 mm 2 mps 726 mmHg 90%
    05:00 0°C° 1.7 mm 3 mps 725 mmHg 91%
    06:00 0°C° 0.8 mm 3 mps 725 mmHg 92%
    07:00 0°C° 0.8 mm 3 mps 725 mmHg 94%
    08:00 0°C° 0.8 mm 3 mps 725 mmHg 95%
    09:00 0°C° 0.4 mm 3 mps 726 mmHg 95%
    10:00 0°C° 0.4 mm 3 mps 726 mmHg 96%
    11:00 +1°C° 0.4 mm 2 mps 726 mmHg 97%
    12:00 +1°C° 0.5 mm 2 mps 727 mmHg 97%
    13:00 0°C° 0.5 mm 3 mps 727 mmHg 97%
    14:00 0°C° 0.5 mm 3 mps 727 mmHg 97%
    15:00 0°C° 0.2 mm 3 mps 728 mmHg 96%
    16:00 +1°C° 0.2 mm 2 mps 729 mmHg 95%
    17:00 -1°C° 0.2 mm 2 mps 730 mmHg 94%
    18:00 -1°C° 0 mm 2 mps 731 mmHg 94%
    19:00 -2°C° 0 mm 2 mps 731 mmHg 93%
    20:00 -2°C° 0 mm 2 mps 732 mmHg 93%
    21:00 -3°C° 0 mm 2 mps 733 mmHg 91%
    22:00 -3°C° 0 mm 2 mps 733 mmHg 90%
    23:00 -1°C° 0 mm 1 mps 734 mmHg 89%

    17 December, Sunday

    Time Temperature Precipitation Wind Pressure Humidity
    00:00 -1°C° 0 mm 1 mps 734 mmHg 88%
    01:00 -1°C° 0 mm 1 mps 734 mmHg 87%
    02:00 -1°C° 0 mm 1 mps 735 mmHg 86%
    03:00 -1°C° 0 mm 1 mps 735 mmHg 87%
    04:00 -1°C° 0 mm 1 mps 735 mmHg 87%
    05:00 -1°C° 0 mm 1 mps 735 mmHg 87%
    06:00 -1°C° 0 mm 1 mps 735 mmHg 88%
    07:00 -1°C° 0 mm 1 mps 736 mmHg 88%
    08:00 -1°C° 0 mm 1 mps 736 mmHg 89%
    09:00 0°C° 0 mm 1 mps 736 mmHg 90%
    10:00 0°C° 0 mm 1 mps 737 mmHg 91%
    11:00 -1°C° 0 mm 2 mps 737 mmHg 92%
    12:00 -1°C° 0 mm 2 mps 737 mmHg 93%
    13:00 -1°C° 0 mm 2 mps 737 mmHg 94%
    14:00 +1°C° 0 mm 2 mps 737 mmHg 95%
    15:00 -1°C° 0 mm 2 mps 737 mmHg 95%
    16:00 -1°C° 0 mm 2 mps 738 mmHg 95%
    17:00 -2°C° 0 mm 2 mps 738 mmHg 95%
    18:00 -2°C° 0 mm 2 mps 738 mmHg 95%
    19:00 -2°C° 0 mm 2 mps 739 mmHg 95%
    20:00 -2°C° 0 mm 2 mps 739 mmHg 95%
    21:00 -2°C° 0.1 mm 2 mps 740 mmHg 95%
    22:00 -2°C° 0.1 mm 2 mps 740 mmHg 95%
    23:00 -2°C° 0.1 mm 2 mps 740 mmHg 95%

    18 December, Monday

    Time Temperature Precipitation Wind Pressure Humidity
    00:00 -2°C° 0.1 mm 2 mps 740 mmHg 95%
    01:00 -2°C° 0.1 mm 3 mps 740 mmHg 95%
    02:00 -2°C° 0.1 mm 3 mps 741 mmHg 95%
    03:00 -2°C° 0.1 mm 3 mps 741 mmHg 95%
    04:00 -2°C° 0.1 mm 3 mps 741 mmHg 95%
    05:00 -2°C° 0.1 mm 3 mps 741 mmHg 95%
    06:00 -2°C° 0.2 mm 3 mps 742 mmHg 94%
    07:00 -2°C° 0.2 mm 3 mps 742 mmHg 93%
    08:00 -2°C° 0.2 mm 3 mps 742 mmHg 93%
    09:00 -2°C° 0.1 mm 3 mps 742 mmHg 91%
    10:00 -3°C° 0.1 mm 4 mps 743 mmHg 90%
    11:00 -3°C° 0.1 mm 4 mps 743 mmHg 89%
    12:00 -2°C° 0.1 mm 3 mps 743 mmHg 88%
    13:00 -2°C° 0.1 mm 3 mps 743 mmHg 87%
    14:00 -1°C° 0.1 mm 3 mps 743 mmHg 86%
    15:00 -2°C° 0.1 mm 3 mps 743 mmHg 88%
    16:00 -2°C° 0.1 mm 2 mps 743 mmHg 89%
    17:00 -3°C° 0.1 mm 2 mps 743 mmHg 91%
    18:00 -3°C° 0 mm 2 mps 743 mmHg 91%
    19:00 -4°C° 0 mm 2 mps 743 mmHg 91%
    20:00 -4°C° 0 mm 2 mps 743 mmHg 92%
    21:00 -5°C° 0 mm 2 mps 743 mmHg 92%
    22:00 -3°C° 0 mm 1 mps 744 mmHg 92%
    23:00 -4°C° 0 mm 1 mps 744 mmHg 92%
    Show more